Regional Weather Roundup
Issued by NWS Cleveland, OH

Home | Current Version | Previous Version | Text Only | Print | Product List | Glossary Off
Versions: 1 2 3 4 5 6 7 8 9 10 11 12 13 14 15 16 17 18 19 20 21 22 23 24 25 26 27 28 29 30 31 32 33 34 35 36 37 38 39 40 41 42 43 44 45 46 47 48 49 50

953
ASUS41 KCLE 052200
RWRCLE
OHIO REGIONAL WEATHER ROUNDUP
NATIONAL WEATHER SERVICE WILMINGTON, OH
500 PM EST FRI FEB 05 2016

NOTE: "FAIR" INDICATES FEW OR NO CLOUDS BELOW 12,000 FEET WITH NO
SIGNIFICANT WEATHER AND/OR OBSTRUCTIONS TO VISIBILITY.

OHZ001>008-015>018-024>027-034-035-043-044-052300-
   NORTHWEST OHIO

CITY           SKY/WX    TMP DP  RH WIND       PRES   REMARKS
DEFIANCE       CLOUDY    37  24  59 W7        30.31R
FINDLAY        CLOUDY    38  23  55 S10       30.30S
TOLEDO EXPRESS CLOUDY    38  19  46 S10       30.29S
TOLEDO EXEC    CLOUDY    39  21  48 SW10      30.31S
LIMA           CLOUDY    37  22  54 S9        30.30S
$$

OHZ009>014-019>023-028>033-038-089-052300-
   NORTHEAST OHIO

CITY           SKY/WX    TMP DP  RH WIND       PRES   REMARKS
CLE-HOPKINS    MOCLDY    34  20  56 SW8       30.36R WCI  27
CLE-LAKEFRONT  FAIR      34  23  64 NE5       30.34S WCI  30
CUY CO. ARPT   NOT AVBL
LORAIN-ELYRIA  MOCLDY    36  20  52 SW10      30.34R
ASHTABULA      FAIR      32  16  51 W6        30.35R WCI  26
AKRON-CANTON   FAIR      34  18  52 SW9       30.33R WCI  27
WOOSTER        NOT AVBL
MANSFIELD      FAIR      35  21  56 S9        30.32R WCI  28
YOUNGSTOWN     MOCLDY    33  18  53 CALM      30.32S
$$

OHZ042-051>053-060>062-070>072-077>081-052300-
  SOUTHWEST OHIO

CITY           SKY/WX    TMP DP  RH WIND       PRES   REMARKS
CINC-COVINGTON CLOUDY    42  18  37 S8        30.35R
CINC-LUNKEN    FAIR      42  19  39 SW13      30.37S
HAMILTON       FAIR      43  18  36 SW7       30.36S
DAYTON         NOT AVBL
WRIGHT-PAT AFB NOT AVBL
DAYTON GENERAL FAIR      40  16  37 SW10      30.33R
WILMINGTON     FAIR      36  21  54 S7        30.35R
$$

OHZ036-037-039>041-045>050-054>059-063>069-073>076-082>088-052300-
  CENTRAL AND SOUTHEAST OHIO

CITY           SKY/WX    TMP DP  RH WIND       PRES   REMARKS
COLUMBUS       FAIR      37  16  42 S7        30.36R
OSU AIRPORT    FAIR      37  17  44 SW10      30.35R
BOLTON FIELD   CLEAR     37  19  48 SW8       30.36S
RICKENBACK AFB NOT AVBL
NEWARK         FAIR      38  18  44 SW6       30.36R
MARION         CLOUDY    37  18  46 SW13      30.33S
LANCASTER      FAIR      38  19  46 S7        30.37R
ZANESVILLE     FAIR      39  18  42 SW8       30.36R
NEW PHILLY     FAIR      37  17  44 S3        30.36S
$$




USA.gov is the U.S. government's official web portal to all federal, state and local government web resources and services.